Location: Amsterdam
(30.7274°N, 84.4357°W)
Time: 18:36:04
(UTC+00:00)

Tiros 1 - Pass Details

Date: 19 February 2026
Orbit: 618 x 649 km, 48.4° (Epoch: 10 March)

Event Time Altitude Azimuth Distance (km) Brightness Sun altitude
Rises 20:21:31 0° 309° (NW) 2,884 10.6 34.9°
Reaches altitude 10° 20:23:50 10° 308° (NW) 1,976 9.8 34.5°
Maximum altitude 20:28:21 78° 224° (SW) 631 8.0 33.8°
Drops below altitude 10° 20:32:53 10° 137° (SE) 1,973 9.7 33.0°
Sets 20:35:12 0° 136° (SE) 2,879 10.5 32.7°
